EWG4Z LSZH-EDDB

Flight info

Callsign EWG4Z
Flight time 1h 3m
Altitude 36000
Route DEGES Z1 ETAGO DCT TIKNI/N0448F370 T279 TAMEB T278 KLF KLF1R
Aircraft A320/M-SDE3FGHIRWY/LB1

Departure

Time 2026-05-06 15:07
Airport Zürich Airport (LSZH)

Arrival

Time 2026-05-06 16:10
Airport Berlin Brandenburg Airport (EDDB)
Time Latitude Longitude Altitude Speed Heading
2026-05-06 14:45 47.45435 8.55568 1405 ft 0 kts 186°
2026-05-06 14:57 47.45436 8.55568 1397 ft 0 kts 186°
2026-05-06 15:00 47.45460 8.55572 1397 ft 4 kts 187°
2026-05-06 15:00 47.45487 8.55577 1399 ft 4 kts 184°
2026-05-06 15:00 47.45512 8.55575 1397 ft 4 kts 150°
2026-05-06 15:01 47.45521 8.55563 1405 ft 0 kts 96°
2026-05-06 15:03 47.45520 8.55583 1402 ft 11 kts 96°
2026-05-06 15:03 47.45509 8.55737 1397 ft 15 kts 96°
2026-05-06 15:04 47.45498 8.55880 1397 ft 15 kts 95°
2026-05-06 15:04 47.45488 8.56025 1401 ft 13 kts 97°
2026-05-06 15:04 47.45478 8.56174 1397 ft 18 kts 89°
2026-05-06 15:04 47.45534 8.56318 1399 ft 15 kts 50°
2026-05-06 15:05 47.45592 8.56437 1404 ft 13 kts 66°
2026-05-06 15:05 47.45589 8.56557 1406 ft 11 kts 102°
2026-05-06 15:05 47.45579 8.56670 1403 ft 15 kts 96°
2026-05-06 15:05 47.45570 8.56833 1397 ft 15 kts 95°
2026-05-06 15:06 47.45569 8.56971 1398 ft 12 kts 70°
2026-05-06 15:06 47.45627 8.57022 1401 ft 10 kts
2026-05-06 15:06 47.45664 8.56966 1404 ft 7 kts 278°
2026-05-06 15:06 47.45669 8.56908 1399 ft 7 kts 276°
2026-05-06 15:07 47.45695 8.56532 1397 ft 78 kts 276°
2026-05-06 15:07 47.45778 8.55346 1405 ft 151 kts 275°
2026-05-06 15:07 47.45881 8.53685 2043 ft 165 kts 273°
2026-05-06 15:07 47.45999 8.51970 2975 ft 173 kts 274°
2026-05-06 15:08 47.46139 8.50111 3394 ft 191 kts 275°
2026-05-06 15:08 47.46209 8.48070 3897 ft 205 kts 256°
2026-05-06 15:08 47.45599 8.46176 4789 ft 206 kts 240°
2026-05-06 15:08 47.44883 8.44363 5724 ft 207 kts 240°
2026-05-06 15:09 47.44163 8.42482 6621 ft 208 kts 240°
2026-05-06 15:09 47.43476 8.40625 7455 ft 211 kts 241°
2026-05-06 15:09 47.42761 8.38719 8298 ft 213 kts 235°
2026-05-06 15:09 47.41741 8.37125 9119 ft 216 kts 217°
2026-05-06 15:10 47.40376 8.36158 9874 ft 222 kts 197°
2026-05-06 15:10 47.38814 8.36022 10513 ft 232 kts 175°
2026-05-06 15:10 47.37266 8.36864 11188 ft 245 kts 151°
2026-05-06 15:10 47.36047 8.38676 11851 ft 258 kts 125°
2026-05-06 15:11 47.35467 8.41224 12544 ft 269 kts 96°
2026-05-06 15:11 47.35745 8.43976 13246 ft 278 kts 69°
2026-05-06 15:11 47.36537 8.46709 13528 ft 301 kts 74°
2026-05-06 15:11 47.36973 8.49832 13703 ft 322 kts 86°
2026-05-06 15:12 47.37134 8.53232 13859 ft 343 kts 90°
2026-05-06 15:12 47.37207 8.56869 13988 ft 365 kts 91°
2026-05-06 15:12 47.37297 8.60677 14393 ft 375 kts 90°
2026-05-06 15:12 47.37452 8.64535 14992 ft 379 kts 88°
2026-05-06 15:13 47.37674 8.68421 15637 ft 381 kts 87°
2026-05-06 15:13 47.37942 8.72335 16299 ft 384 kts 86°
2026-05-06 15:13 47.38231 8.76257 16924 ft 386 kts 87°
2026-05-06 15:13 47.38526 8.80209 17520 ft 389 kts 87°
2026-05-06 15:14 47.38811 8.84142 18105 ft 392 kts 88°
2026-05-06 15:14 47.39093 8.88150 18617 ft 394 kts 88°
2026-05-06 15:14 47.39373 8.92194 19124 ft 397 kts 88°
2026-05-06 15:14 47.39653 8.96265 19617 ft 400 kts 88°
2026-05-06 15:15 47.39931 9.00365 20108 ft 402 kts 88°
2026-05-06 15:15 47.40209 9.04484 20591 ft 405 kts 89°
2026-05-06 15:15 47.40486 9.08637 21069 ft 408 kts 89°
2026-05-06 15:15 47.40763 9.12824 21543 ft 411 kts 89°
2026-05-06 15:16 47.41105 9.17033 22002 ft 416 kts 83°
2026-05-06 15:16 47.41883 9.21191 22347 ft 426 kts 73°
2026-05-06 15:16 47.43180 9.25188 22710 ft 436 kts 63°
2026-05-06 15:16 47.44704 9.29056 23223 ft 436 kts 64°
2026-05-06 15:17 47.46252 9.32931 23639 ft 440 kts 60°
2026-05-06 15:17 47.48147 9.36524 23973 ft 447 kts 49°
2026-05-06 15:17 47.50469 9.39629 24301 ft 454 kts 38°
2026-05-06 15:17 47.53134 9.42079 24614 ft 459 kts 27°
2026-05-06 15:18 47.56117 9.43833 24927 ft 463 kts 16°
2026-05-06 15:18 47.59258 9.44913 25279 ft 465 kts
2026-05-06 15:18 47.62481 9.45347 25612 ft 466 kts
2026-05-06 15:18 47.65721 9.45520 26010 ft 467 kts 360°
2026-05-06 15:19 47.68976 9.45687 26369 ft 469 kts 360°
2026-05-06 15:19 47.72257 9.45854 26700 ft 471 kts 359°
2026-05-06 15:19 47.75536 9.46023 27017 ft 474 kts 359°
2026-05-06 15:19 47.78839 9.46200 27324 ft 476 kts 359°
2026-05-06 15:20 47.82167 9.46353 27592 ft 479 kts 358°
2026-05-06 15:20 47.85502 9.46409 27940 ft 480 kts 357°
2026-05-06 15:20 47.88847 9.46392 28278 ft 481 kts 356°
2026-05-06 15:20 47.92205 9.46334 28568 ft 484 kts 356°
2026-05-06 15:21 47.95580 9.46270 28906 ft 487 kts 356°
2026-05-06 15:21 47.98978 9.46223 29215 ft 490 kts 356°
2026-05-06 15:21 48.02395 9.46200 29493 ft 493 kts 356°
2026-05-06 15:21 48.05834 9.46194 29734 ft 495 kts 356°
2026-05-06 15:22 48.09284 9.46191 29974 ft 497 kts 356°
2026-05-06 15:22 48.12752 9.46187 30189 ft 499 kts 356°
2026-05-06 15:22 48.16226 9.46183 30460 ft 499 kts 356°
2026-05-06 15:22 48.19697 9.46182 30775 ft 498 kts 356°
2026-05-06 15:23 48.23163 9.46188 31168 ft 498 kts 356°
2026-05-06 15:23 48.26625 9.46195 31634 ft 497 kts 357°
2026-05-06 15:23 48.30077 9.46203 32097 ft 495 kts 357°
2026-05-06 15:23 48.33474 9.46212 32510 ft 494 kts 357°
2026-05-06 15:24 48.36902 9.46221 32882 ft 493 kts 356°
2026-05-06 15:24 48.40338 9.46224 33246 ft 493 kts 356°
2026-05-06 15:24 48.43772 9.46224 33571 ft 492 kts 356°
2026-05-06 15:24 48.47207 9.46223 33873 ft 492 kts 356°
2026-05-06 15:25 48.50621 9.46221 34138 ft 491 kts 356°
2026-05-06 15:25 48.54041 9.46217 34402 ft 490 kts 356°
2026-05-06 15:25 48.57446 9.46195 34660 ft 489 kts 356°
2026-05-06 15:25 48.60849 9.46156 34943 ft 488 kts 356°
2026-05-06 15:26 48.64241 9.46108 35255 ft 487 kts 356°
2026-05-06 15:26 48.67632 9.46059 35525 ft 486 kts 356°
2026-05-06 15:26 48.69871 9.46029 35690 ft 486 kts 356°
2026-05-06 15:26 48.73251 9.46174 35923 ft 487 kts
2026-05-06 15:27 48.76610 9.46906 36140 ft 488 kts
2026-05-06 15:27 48.79960 9.47712 36359 ft 487 kts
2026-05-06 15:27 48.83306 9.48512 36588 ft 486 kts
2026-05-06 15:27 48.86640 9.49306 36769 ft 486 kts
2026-05-06 15:28 48.89985 9.50102 36818 ft 486 kts
2026-05-06 15:28 48.96671 9.51697 36811 ft 486 kts
2026-05-06 15:29 49.03365 9.53298 36811 ft 486 kts
2026-05-06 15:29 49.10043 9.54915 36809 ft 486 kts
2026-05-06 15:30 49.16689 9.56532 36807 ft 486 kts
2026-05-06 15:30 49.23378 9.58146 36812 ft 486 kts
2026-05-06 15:31 49.30067 9.59749 36815 ft 486 kts
2026-05-06 15:31 49.36754 9.61372 36821 ft 486 kts
2026-05-06 15:32 49.46778 9.63831 36812 ft 486 kts
2026-05-06 15:32 49.53443 9.65457 36813 ft 485 kts
2026-05-06 15:33 49.60125 9.67106 36815 ft 485 kts
2026-05-06 15:33 49.66782 9.68759 36816 ft 484 kts
2026-05-06 15:34 49.73384 9.70387 36815 ft 483 kts
2026-05-06 15:34 49.80025 9.72027 36811 ft 483 kts
2026-05-06 15:35 49.86660 9.73672 36807 ft 482 kts
2026-05-06 15:35 49.93288 9.75326 36803 ft 482 kts
2026-05-06 15:36 49.99904 9.76974 36803 ft 481 kts
2026-05-06 15:36 50.06507 9.78614 36796 ft 480 kts
2026-05-06 15:37 50.13116 9.80277 36796 ft 480 kts
2026-05-06 15:37 50.19704 9.81951 36785 ft 479 kts
2026-05-06 15:38 50.26286 9.83606 36787 ft 478 kts
2026-05-06 15:38 50.32852 9.85263 36775 ft 478 kts
2026-05-06 15:39 50.39258 9.88056 36771 ft 480 kts 25°
2026-05-06 15:39 50.44804 9.93806 36768 ft 480 kts 44°
2026-05-06 15:40 50.49423 10.01353 36766 ft 479 kts 47°
2026-05-06 15:40 50.54013 10.08987 36760 ft 480 kts 47°
2026-05-06 15:41 50.58606 10.16636 36757 ft 481 kts 47°
2026-05-06 15:41 50.63159 10.24264 36762 ft 481 kts 48°
2026-05-06 15:42 50.67028 10.32772 36745 ft 478 kts 64°
2026-05-06 15:42 50.70179 10.41990 36752 ft 478 kts 63°
2026-05-06 15:43 50.73349 10.51214 36760 ft 478 kts 63°
2026-05-06 15:43 50.76513 10.60432 36763 ft 478 kts 63°
2026-05-06 15:44 50.79674 10.69698 36767 ft 478 kts 63°
2026-05-06 15:44 50.82806 10.78958 36766 ft 477 kts 64°
2026-05-06 15:45 50.85940 10.88241 36738 ft 478 kts 64°
2026-05-06 15:45 50.89069 10.97536 36740 ft 478 kts 64°
2026-05-06 15:46 50.92193 11.06838 36743 ft 478 kts 64°
2026-05-06 15:46 50.95315 11.16166 36745 ft 478 kts 64°
2026-05-06 15:47 50.98397 11.25440 36759 ft 479 kts 64°
2026-05-06 15:47 51.01504 11.34801 36768 ft 479 kts 64°
2026-05-06 15:48 51.04599 11.44176 36741 ft 480 kts 64°
2026-05-06 15:48 51.07693 11.53587 36751 ft 480 kts 64°
2026-05-06 15:49 51.10787 11.63017 36753 ft 481 kts 64°
2026-05-06 15:49 51.13871 11.72477 36763 ft 481 kts 65°
2026-05-06 15:50 51.16943 11.81941 36772 ft 481 kts 65°
2026-05-06 15:50 51.20038 11.91411 36772 ft 482 kts 61°
2026-05-06 15:51 51.24151 11.99926 36304 ft 489 kts 47°
2026-05-06 15:51 51.26493 12.03862 35669 ft 489 kts 47°
2026-05-06 15:51 51.28842 12.07787 35055 ft 489 kts 46°
2026-05-06 15:52 51.31204 12.11726 34413 ft 490 kts 46°
2026-05-06 15:52 51.33560 12.15670 33788 ft 492 kts 46°
2026-05-06 15:52 51.35927 12.19655 33042 ft 493 kts 46°
2026-05-06 15:52 51.38280 12.23633 32319 ft 493 kts 47°
2026-05-06 15:53 51.40630 12.27621 31628 ft 492 kts 47°
2026-05-06 15:53 51.42973 12.31603 30931 ft 490 kts 47°
2026-05-06 15:53 51.45303 12.35576 30257 ft 488 kts 48°
2026-05-06 15:53 51.47621 12.39537 29549 ft 486 kts 48°
2026-05-06 15:54 51.49899 12.43433 28801 ft 483 kts 48°
2026-05-06 15:54 51.52191 12.47350 28046 ft 480 kts 47°
2026-05-06 15:54 51.54470 12.51246 27323 ft 477 kts 47°
2026-05-06 15:54 51.56736 12.55125 26619 ft 474 kts 47°
2026-05-06 15:55 51.58989 12.58991 25881 ft 472 kts 47°
2026-05-06 15:55 51.61226 12.62838 25179 ft 471 kts 47°
2026-05-06 15:55 51.63462 12.66689 24457 ft 469 kts 47°
2026-05-06 15:55 51.65681 12.70513 23777 ft 466 kts 47°
2026-05-06 15:56 51.67889 12.74326 23043 ft 464 kts 47°
2026-05-06 15:56 51.70079 12.78117 22255 ft 462 kts 47°
2026-05-06 15:56 51.72261 12.81902 21482 ft 460 kts 47°
2026-05-06 15:56 51.74430 12.85674 20731 ft 458 kts 47°
2026-05-06 15:57 51.76596 12.89445 20000 ft 455 kts 48°
2026-05-06 15:57 51.78534 12.93453 19256 ft 449 kts 58°
2026-05-06 15:57 51.80129 12.97673 18578 ft 432 kts 60°
2026-05-06 15:57 51.81663 13.01761 17872 ft 419 kts 59°
2026-05-06 15:58 51.83155 13.05741 17097 ft 408 kts 59°
2026-05-06 15:58 51.84606 13.09620 16339 ft 398 kts 59°
2026-05-06 15:58 51.86023 13.13418 15597 ft 389 kts 59°
2026-05-06 15:58 51.87409 13.17136 14883 ft 382 kts 59°
2026-05-06 15:59 51.88766 13.20777 14185 ft 375 kts 59°
2026-05-06 15:59 51.90103 13.24364 13465 ft 368 kts 59°
2026-05-06 15:59 51.91415 13.27888 12684 ft 363 kts 59°
2026-05-06 15:59 51.92708 13.31369 11936 ft 358 kts 59°
2026-05-06 16:00 51.93980 13.34802 11201 ft 353 kts 59°
2026-05-06 16:00 51.95231 13.38190 10489 ft 348 kts 59°
2026-05-06 16:00 51.96464 13.41517 9978 ft 337 kts 57°
2026-05-06 16:00 51.97942 13.44286 9825 ft 316 kts 38°
2026-05-06 16:01 51.99781 13.46115 9822 ft 308 kts 19°
2026-05-06 16:01 52.01836 13.46935 9733 ft 304 kts 360°
2026-05-06 16:01 52.03886 13.46555 9344 ft 294 kts 337°
2026-05-06 16:01 52.05652 13.45041 8945 ft 284 kts 317°
2026-05-06 16:02 52.07133 13.42936 8564 ft 281 kts 314°
2026-05-06 16:02 52.08570 13.40860 8184 ft 279 kts 314°
2026-05-06 16:02 52.10021 13.38770 7817 ft 278 kts 315°
2026-05-06 16:02 52.11463 13.36696 7440 ft 276 kts 315°
2026-05-06 16:03 52.12895 13.34633 7066 ft 274 kts 315°
2026-05-06 16:03 52.14313 13.32588 6699 ft 272 kts 315°
2026-05-06 16:03 52.15726 13.30548 6334 ft 270 kts 315°
2026-05-06 16:03 52.17130 13.28524 5952 ft 269 kts 315°
2026-05-06 16:04 52.18528 13.26507 5565 ft 268 kts 315°
2026-05-06 16:04 52.19927 13.24486 5166 ft 268 kts 316°
2026-05-06 16:04 52.21318 13.22468 4798 ft 266 kts 316°
2026-05-06 16:04 52.22695 13.20470 4423 ft 265 kts 316°
2026-05-06 16:05 52.24092 13.18533 4067 ft 262 kts 324°
2026-05-06 16:05 52.25792 13.17701 3745 ft 254 kts
2026-05-06 16:05 52.27391 13.18639 3494 ft 241 kts 39°
2026-05-06 16:05 52.28313 13.20781 3242 ft 228 kts 68°
2026-05-06 16:06 52.28878 13.23162 3054 ft 222 kts 68°
2026-05-06 16:06 52.29407 13.25388 2939 ft 208 kts 68°
2026-05-06 16:06 52.29931 13.27576 2699 ft 201 kts 68°
2026-05-06 16:06 52.30415 13.29589 2448 ft 186 kts 68°
2026-05-06 16:07 52.30867 13.31473 2220 ft 167 kts 68°
2026-05-06 16:07 52.31269 13.33149 2006 ft 153 kts 67°
2026-05-06 16:07 52.31649 13.34733 1811 ft 144 kts 67°
2026-05-06 16:07 52.32003 13.36212 1608 ft 137 kts 67°
2026-05-06 16:08 52.32350 13.37662 1420 ft 136 kts 68°
2026-05-06 16:08 52.32584 13.38637 1293 ft 137 kts 67°
2026-05-06 16:08 52.32922 13.40051 1098 ft 135 kts 68°
2026-05-06 16:08 52.33262 13.41475 915 ft 134 kts 66°
2026-05-06 16:09 52.33602 13.42891 691 ft 135 kts 68°
2026-05-06 16:09 52.33946 13.44320 520 ft 134 kts 66°
2026-05-06 16:09 52.34283 13.45738 330 ft 133 kts 67°
2026-05-06 16:09 52.34615 13.47151 180 ft 132 kts 66°
2026-05-06 16:10 52.34915 13.48407 154 ft 97 kts 69°
2026-05-06 16:10 52.35106 13.49220 154 ft 59 kts 69°
2026-05-06 16:10 52.35240 13.49782 154 ft 48 kts 69°
2026-05-06 16:10 52.35352 13.50250 154 ft 41 kts 68°
2026-05-06 16:11 52.35497 13.50579 154 ft 30 kts 41°
2026-05-06 16:11 52.35578 13.50685 154 ft 7 kts 38°
2026-05-06 16:11 52.35621 13.50742 154 ft 9 kts 39°
2026-05-06 16:11 52.35690 13.50823 154 ft 14 kts 26°
2026-05-06 16:12 52.35787 13.50815 154 ft 15 kts 339°
2026-05-06 16:12 52.35891 13.50782 154 ft 16 kts 21°
2026-05-06 16:12 52.35946 13.50945 154 ft 18 kts 69°
2026-05-06 16:12 52.35993 13.51139 154 ft 19 kts 68°
2026-05-06 16:13 52.36036 13.51316 155 ft 9 kts 57°
2026-05-06 16:13 52.36097 13.51314 155 ft 10 kts 341°
2026-05-06 16:13 52.36121 13.51299 155 ft 2 kts 339°
2026-05-06 16:13 52.36123 13.51298 155 ft 0 kts 339°